Location: Harbor Side
(32.6101°N, 117.0814°W)
Time: 07:35:08
(UTC+00:00)

Cosmos 1725 Rocket - Pass Details

Date: 21 April 2021
Orbit: 962 x 990 km, 82.9° (Epoch: 13 May)

Event Time Altitude Azimuth Distance (km) Brightness Sun altitude
Rises 12:33:50 0° 353° (N) 3,703 7.2 -8.4°
Reaches altitude 10° 12:36:22 10° 353° (N) 2,749 6.5 -7.9°
Maximum altitude 12:42:41 86° 265° (W) 990 4.1 -6.6°
Drops below altitude 10° 12:48:56 10° 178° (S) 2,718 6.2 -5.4°
Sets 12:51:25 0° 177° (S) 3,658 6.8 -4.9°
